sat.trackr.live / text

‹ back to catalog

UNKNOWN

NORAD 82223

UNKNOWN UNKNOWN UNKNOWN

§ Identity

Operator
Country
Launch date
Launch site
Launch vehicle
Mass (kg)
RCS (m²)

External: N2YO · Heavens-Above

§ Orbital elements

Epoch: 2026-05-23T10:34:13.865664Z

Period
101.93 min
Inclination
99.3109°
Eccentricity
0.0066397
Mean motion
14.12667546 rev/d
Perigee alt
802.3 km
Apogee alt
898.3 km
Semi-major
7,228.4 km
B*
7.6179e-4
RAAN
40.7062°
Arg perigee
254.5043°
Mean anomaly
104.8789°
Rev number
47,161

§ Raw data

UNKNOWN1 82223U          26143.44043826  .00001393  00000+0  76179-3 0  99922 82223  99.3109  40.7062 0066397 254.5043 104.8789 14.12667546471611

JSON: /api/v1/satellites/82223 · /tle

For live sub-satellite position, see the globe view (requires WebGL).

§ Visibility from observer

Set your observer location to see the next 7 days of passes ≥ 10°. The values pass through the URL so the page stays shareable.

No JS? Fill the form by hand. The geolocation button needs JavaScript.